Location: *
(44.3526°S, 44.9014°W)
Time: 00:06:20
(UTC+00:00)

USA 59 Rocket - Pass Details

Date: 13 May 2025
Orbit: 373 x 1696 km, 63.3° (Epoch: 14 June)

Event Time Altitude Azimuth Distance (km) Brightness Sun altitude
Rises 20:35:21 0° 228° (SW) 4,990 5.1 -9.3°
Reaches altitude 10° 20:39:14 10° 218° (SW) 3,996 4.5 -10.0°
Maximum altitude 20:48:05 31° 160° (SSE) 2,532 2.9 -11.5°
Enters shadow 20:54:15 15° 108° (ESE) 3,126 3.0 -12.6°
